Regional Weather Roundup
Issued by NWS

Current Version | Previous Version | Text Only | Print | Product List | Glossary On
Versions: 1 2 3 4 5 6 7 8 9 10 11 12 13 14 15 16 17 18 19 20 21 22 23 24 25 26 27 28 29 30 31 32 33 34 35 36 37 38 39 40 41 42 43 44 45 46 47 48 49 50
000
ASUS43 KDMX 190607
RWRIA

WEATHER ROUNDUP FOR IOWA
NATIONAL WEATHER SERVICE DES MOINES IA
1200 AM CST FRI DEC 19 2014

NOTE: "FAIR" INDICATES FEW OR NO CLOUDS BELOW 12,000 FEET WITH NO
SIGNIFICANT WEATHER AND/OR OBSTRUCTIONS TO VISIBILITY.

* - THESE STATIONS ARE NOT NWS STATIONS...THUS NOT UNDER NWS
QUALITY CONTROL.  THEY ALSO DO NOT REPORT WEATHER SUCH
AS PRECIPITATION OR FOG.

IAZ001>003-012>014-020>022-031>034-043>046-190700-
   NORTHWEST IOWA

CITY           SKY/WX    TMP DP  RH WIND       PRES   REMARKS
CARROLL *      CLOUDY    28  27  93 S7        30.24S WCI  21
CHEROKEE *     CLOUDY    29  28  94 S5        30.23R WCI  24
DENISON *      CLOUDY    30  28  93 S7        30.22S WCI  23
LE MARS *      CLOUDY    30  28  93 S7        30.22S WCI  23
ORANGE CITY *  CLOUDY    28  27  93 S6        30.20S FOG     WCI  22
SHELDON *      CLOUDY    28  27  93 S8        30.19S WCI  20
SIOUX CITY     CLOUDY    31  26  82 S6        30.23S WCI  25
6HR MIN TEMP:  30; 6HR MAX TEMP:  31;

SPENCER        CLOUDY    28  24  85 S8        30.22R WCI  20
6HR MIN TEMP:  27; 6HR MAX TEMP:  28;

STORM LAKE *   CLOUDY    28  27  93 S8        30.22S WCI  20
$$

IAZ055>058-069>071-079>083-090>094-190700-
   SOUTHWEST IOWA

CITY           SKY/WX    TMP DP  RH WIND       PRES   REMARKS
ATLANTIC *     CLOUDY    30  28  93 S5        30.25S WCI  25
AUDUBON *      CLEAR     28  23  80 S3        30.25S
CLARINDA *     CLOUDY    30  28  93 S5        30.29R WCI  25
COUNCIL BLFS * CLOUDY    30  30 100 S6        30.24R WCI  24
CRESTON *      CLOUDY    28  28 100 S7        30.25S WCI  21
HARLAN  *      CLOUDY    30  30 100 S7        30.28S WCI  23
LAMONI         CLOUDY    28  25  88 SE3       30.27R
6HR MIN TEMP:  28; 6HR MAX TEMP:  30;

RED OAK *      CLOUDY    30  28  93 S5        30.27R WCI  25
SHENANDOAH *   CLOUDY    30  28  93 CALM      30.28R
$$

IAZ047>049-059>061-072>074-084-190700-
   CENTRAL IOWA

CITY           SKY/WX    TMP DP  RH WIND       PRES   REMARKS
AMES           CLOUDY    26  21  81 SE6       30.27S WCI  19
6HR MIN TEMP:  26; 6HR MAX TEMP:  27;

ANKENY *       CLOUDY    27  23  86 CALM      30.28S
CHARITON *     CLOUDY    28  27  93 CALM      30.27S FOG
DES MOINES     CLOUDY    28  23  81 SE6       30.28S WCI  22
6HR MIN TEMP:  27; 6HR MAX TEMP:  29;

GRINNELL*      CLOUDY    25  21  86 SE3       30.28S
KNOXVILLE *    CLOUDY    27  23  86 CALM      30.27S
MARSHALLTOWN   PTCLDY    22  19  89 SE3       30.27R
6HR MIN TEMP:  21; 6HR MAX TEMP:  25;

PELLA *        CLOUDY    27  24  87 CALM      30.30R
PERRY *        CLOUDY    28  27  93 S7        30.27R WCI  21
$$

IAZ004>006-015-016-023>025-035-036-190700-
   NORTH CENTRAL IOWA

CITY           SKY/WX    TMP DP  RH WIND       PRES   REMARKS
ALGONA *       CLOUDY    27  23  86 S7        30.24S WCI  19
CLARION *      CLOUDY    25  25 100 S7        30.25F WCI  17
ESTHERVILLE    CLOUDY    25  21  85 S8        30.22R WCI  16
6HR MIN TEMP:  23; 6HR MAX TEMP:  25;

FORT DODGE *   CLOUDY    27  19  74 SE3       30.25F
MASON CITY     CLOUDY    23  19  85 S5        30.27S WCI  17
6HR MIN TEMP:  23; 6HR MAX TEMP:  24;

FOREST CITY *  CLOUDY    27  21  80 SE6       30.24F WCI  20
IOWA FALLS *   CLOUDY    24  20  85 SE5       30.28R WCI  19
$$

IAZ007>011-017>019-026>030-037>042-050>054-066-190700-
   NORTHEAST IOWA

CITY           SKY/WX    TMP DP  RH WIND       PRES   REMARKS
CEDAR RAPIDS   CLOUDY    24  19  81 CALM      30.28F
6HR MIN TEMP:  23; 6HR MAX TEMP:  25;

CHARLES CITY * CLOUDY    23  19  86 CALM      30.27S
CLINTON *      CLEAR     16  10  79 CALM      30.32F
DECORAH *      CLOUDY    23  18  80 VRB3      30.26S
DUBUQUE        CLOUDY    23  19  85 CALM      30.27S
6HR MIN TEMP:  19; 6HR MAX TEMP:  23;

MONTICELLO *   CLEAR     16  16 100 CALM      30.29F
OELWEIN *      CLOUDY    21  19  93 CALM      30.27F
WATERLOO       CLOUDY    24  19  81 CALM      30.28S
6HR MIN TEMP:  23; 6HR MAX TEMP:  24;

$$

IAZ064-065-067-068-078-190700-
   EAST CENTRAL IOWA

CITY           SKY/WX    TMP DP  RH WIND       PRES   REMARKS
DAVENPORT      CLEAR     18  13  80 CALM      30.29F
6HR MIN TEMP:  18; 6HR MAX TEMP:  24;

IOWA CITY      CLOUDY    26  20  77 CALM      30.31S
6HR MIN TEMP:  26; 6HR MAX TEMP:  27;

MT. PLEASANT * CLOUDY    27  24  89 CALM      30.30S FOG
MUSCATINE *    CLOUDY    28  21  74 N5        30.31S WCI  23
QUAD CITIES    CLEAR     18  14  84 CALM      30.30S
6HR MIN TEMP:  18; 6HR MAX TEMP:  26;

$$

IAZ062-063-075>077-085>089-095>099-190700-
   SOUTHEAST IOWA

CITY           SKY/WX    TMP DP  RH WIND       PRES   REMARKS
BURLINGTON     CLOUDY    28  24  85 CALM      30.29R
6HR MIN TEMP:  27; 6HR MAX TEMP:  29;

FAIRFIELD *    CLOUDY    27  23  86 CALM      30.29F
FORT MADISON * CLOUDY    28  25  86 CALM      30.30S
KEOKUK *       CLOUDY    28  25  86 CALM      30.29S
OSKALOOSA *    CLOUDY    26  23  87 CALM      30.29S
CENTERVILLE *  MOCLDY    27  27 100 CALM      30.29S
OTTUMWA        CLOUDY    27  23  85 CALM      30.28F
6HR MIN TEMP:  26; 6HR MAX TEMP:  27;

WASHINGTON *   CLOUDY    27  25  93 CALM      30.29S
$$

ABBREVIATIONS USED IN REMARKS
   TC - TEMPERATURES IN CELSIUS
  WCI - WIND CHILL INDEX
   HX - HEAT INDEX
  VSB - VISIBILITY
$$




USA.gov is the U.S. government's official web portal to all federal, state and local government web resources and services.